Temperature
12 12 12 11 11 11 11 10 10 10 10 10 10 10 10 10 10 10 11 11 11 11 11 11 12 12 12 12 12 12 13 13 13 14 15 15 15 16 16 16 16 16 16
12 11 11 11 11 10 10 10 10 10 10 10 10 10 10 10 10 10 10 10 10 10 11 11 11 11 11 11 12 12 12 12 13 13 14 14 15 15 15 15 15 15 15
11 11 11 10 10 10 9 9 9 9 9 9 9 9 9 9 9 9 9 10 10 10 10 10 11 11 11 11 11 11 12 12 12 12 13 13 14 14 15 14 14 15 15
11 11 10 10 10 9 9 9 9 9 9 8 8 8 8 8 9 9 9 9 9 10 10 10 10 10 11 11 11 11 11 11 12 12 12 12 13 13 14 14 14 14 14
11 10 10 9 9 9 9 8 8 8 8 8 8 8 8 8 8 8 9 9 9 9 9 10 10 10 10 10 10 11 11 11 11 11 12 12 12 12 13 13 13 13 13
10 10 9 9 9 9 8 8 8 8 8 8 8 8 8 8 8 8 8 8 8 8 8 9 9 10 10 10 10 10 10 11 11 11 11 12 12 12 12 12 13 13 12
10 9 9 9 8 8 8 8 8 8 8 8 8 8 8 8 8 7 7 7 7 8 8 8 9 9 9 10 10 10 10 10 10 11 11 11 12 12 12 12 12 13 13
10 9 9 8 8 8 8 8 8 8 8 8 8 8 8 8 8 7 7 7 7 7 8 8 8 9 9 9 10 10 10 10 10 10 11 11 11 11 12 12 12 12 12
9 9 8 8 8 8 8 8 8 8 8 8 8 8 8 8 8 7 7 7 7 7 7 8 8 8 9 9 9 9 10 10 10 10 10 10 11 11 11 11 11 11 11
9 9 8 8 8 8 8 8 8 8 8 8 8 8 7 7 7 7 7 7 7 7 7 7 8 8 8 8 9 9 9 10 10 10 10 10 10 10 11 11 11 11 11
9 8 8 8 8 8 8 8 8 8 8 8 7 7 7 7 7 7 7 7 7 7 7 7 7 8 8 8 9 9 9 9 10 10 10 10 10 10 10 11 11 11 11
9 8 8 8 8 8 8 8 8 8 8 7 7 7 7 7 7 7 7 7 7 7 7 7 7 8 8 8 8 9 9 9 9 9 9 10 10 10 10 10 11 11 11
9 8 8 8 8 8 8 8 8 8 8 7 7 7 7 7 7 7 7 7 7 7 7 7 7 7 8 8 8 9 9 9 9 9 9 10 10 10 10 10 10 10 11
8 8 8 8 8 8 8 8 8 8 8 7 7 7 7 7 6 7 7 7 7 6 7 7 7 7 8 8 8 8 9 9 9 9 9 10 10 10 10 10 10 10 10
9 8 8 8 8 8 8 8 8 8 8 7 7 7 7 6 6 6 6 7 7 6 6 7 7 7 7 8 8 8 9 9 9 9 9 9 9 10 10 10 10 10 10
9 9 8 8 8 8 8 9 9 8 8 8 7 7 7 6 6 6 6 6 6 6 6 7 7 7 8 8 8 8 9 9 9 9 9 9 9 10 10 10 10 10 10
9 9 9 8 9 9 9 8 9 9 8 8 7 7 7 7 6 6 6 6 6 6 6 7 7 7 8 8 8 8 9 9 9 9 9 9 9 9 9 9 10 10 10
9 9 9 9 9 9 9 9 8 8 8 8 8 7 7 7 7 7 6 6 6 6 7 7 7 7 8 8 8 8 9 9 9 9 9 9 9 9 9 9 9 9 10
9 9 9 9 9 9 9 9 9 8 8 8 8 8 7 7 7 7 7 7 7 7 7 7 7 8 8 8 8 8 9 9 9 9 9 9 9 9 9 9 9 9 9
9 9 9 9 9 9 9 9 9 9 8 8 8 8 8 7 7 7 7 7 7 7 7 7 8 8 8 8 8 9 9 9 9 9 9 9 9 9 9 9 9 9 9
9 10 9 10 10 9 9 9 9 9 9 9 8 8 8 8 8 7 7 7 7 7 7 8 8 8 8 8 8 9 9 9 9 9 9 9 9 9 9 9 9 9 9
10 10 10 10 10 10 10 10 9 9 9 9 9 9 8 8 8 8 8 8 8 8 8 8 8 8 8 8 8 8 8 9 9 9 9 9 9 9 9 9 8 8 8
10 10 10 10 10 10 10 10 10 9 9 9 9 9 9 8 8 8 8 8 8 8 8 8 8 8 8 8 8 8 8 9 9 9 9 9 8 8 8 8 8 8 8
10 10 10 10 10 10 10 10 10 10 10 10 9 9 9 9 8 8 8 8 8 8 8 8 8 8 8 8 8 8 8 8 8 8 8 8 8 8 8 8 8 8 8
10 10 10 10 10 10 10 10 10 10 10 10 10 10 9 9 9 8 8 8 8 8 8 8 8 8 8 8 8 8 8 8 8 8 8 8 8 8 8 8 8 8 8
9 9 10 10 10 10 10 10 10 10 10 10 10 10 10 10 9 9 9 8 8 8 8 8 8 8 8 8 8 8 8 8 8 8 8 8 8 8 8 8 8 8 8
Wind_Speed
4 4 4 5 5 5 5 6 7 6 7 7 7 7 7 7 7 6 7 8 9 8 8 8 8 6 5 5 4 4 4 4 4 3 1 1 2 5 6 7 9 8 7
4 4 5 5 6 6 6 7 7 7 7 7 7 7 8 8 8 8 8 8 9 9 9 9 9 7 7 6 5 6 5 5 4 4 3 2 2 6 7 7 6 7 7
4 5 6 6 7 7 8 8 7 8 8 8 7 8 8 9 9 9 9 9 9 10 10 10 10 8 8 6 6 6 5 5 4 4 3 3 2 5 6 5 6 5 6
5 5 7 7 7 8 8 8 8 8 8 8 8 8 9 9 9 9 9 9 9 10 10 10 10 10 10 9 7 7 6 5 4 4 4 4 4 5 6 6 5 3 4
6 6 7 7 7 7 8 8 8 8 9 8 8 9 9 9 10 10 9 10 9 9 9 9 10 12 13 11 8 8 7 6 5 5 5 4 5 6 6 5 6 5 3
6 7 7 7 7 8 8 8 8 9 9 9 9 9 10 10 13 14 11 8 7 8 9 8 9 11 13 15 15 14 12 9 8 6 5 6 7 7 6 7 7 6 4
7 7 7 7 8 8 9 9 9 9 9 10 10 9 10 12 16 16 16 10 8 8 9 8 9 10 10 8 12 15 15 15 14 9 7 7 7 8 9 9 8 6 4
7 7 8 8 9 9 9 9 10 9 9 10 10 10 10 13 15 16 17 11 9 9 10 9 9 8 9 8 8 8 9 10 12 9 8 7 7 8 10 9 8 5 4
7 8 8 9 10 10 10 11 10 9 10 10 9 10 11 12 14 15 14 7 8 9 10 9 9 10 12 12 9 8 8 7 10 12 11 10 10 11 10 8 9 9 5
8 9 9 9 10 11 11 11 9 9 10 9 10 9 10 11 13 14 12 6 7 7 7 8 12 12 13 14 10 9 9 7 7 8 8 8 7 9 13 11 11 10 6
8 9 10 9 10 10 9 8 9 9 9 8 9 9 8 9 11 12 12 7 7 7 6 6 8 14 15 16 13 10 11 9 7 8 7 6 5 6 8 9 9 9 8
8 9 10 10 10 10 9 9 9 8 8 8 7 7 6 6 7 8 10 10 9 7 6 6 7 13 14 14 11 11 12 10 6 6 5 5 5 6 7 9 9 8 7
8 9 10 11 9 9 9 9 8 7 6 6 6 6 6 5 5 7 7 8 9 6 5 7 7 10 11 9 11 12 10 6 5 5 6 6 5 6 6 6 6 6 5
8 9 9 10 10 10 8 7 6 6 6 6 5 6 5 5 4 4 3 2 4 5 3 4 5 6 5 6 7 7 6 7 6 6 6 5 4 5 6 5 6 7 6
8 9 9 9 9 9 9 7 7 6 6 6 5 4 4 5 5 7 4 2 3 4 4 3 3 3 4 3 4 5 5 5 5 4 5 4 4 5 5 5 6 6 6
8 8 8 8 8 8 9 9 9 8 9 9 8 6 5 6 8 7 4 3 3 6 5 3 4 4 5 5 6 5 5 6 6 5 5 5 5 5 5 5 6 7 8
8 9 8 8 8 8 8 7 8 7 7 7 7 8 7 7 6 5 3 1 1 4 3 4 4 5 5 5 6 6 6 6 6 6 6 5 5 5 6 6 7 7 7
8 9 9 8 8 8 8 7 6 6 6 5 5 7 7 7 5 4 2 0 1 2 3 4 4 5 5 5 5 5 5 6 6 6 6 6 6 6 6 7 8 8 8
8 7 8 8 8 7 7 6 5 5 5 5 4 3 5 5 5 5 3 2 3 3 3 4 4 5 5 5 6 6 6 6 6 7 7 7 7 7 7 7 8 10 9
7 12 11 8 8 7 6 6 5 5 5 5 4 3 1 1 2 3 3 4 4 3 3 4 4 5 5 5 6 6 6 6 7 7 7 7 8 8 8 9 9 9 8
7 9 12 9 7 6 6 6 5 5 5 5 4 4 3 2 3 3 3 3 4 4 4 3 4 4 4 4 5 6 7 6 7 7 7 7 8 8 7 8 9 9 8
6 7 7 7 7 6 6 6 5 5 5 5 4 4 4 3 3 3 3 3 3 4 3 3 3 3 4 4 5 5 6 6 7 7 7 7 8 8 8 8 9 9 10
6 7 7 7 6 8 7 6 5 5 5 5 4 4 3 2 3 3 3 3 2 2 2 3 3 2 2 3 4 5 6 7 7 8 8 8 8 8 9 9 11 12 11
6 7 7 7 6 6 6 6 6 5 5 5 4 3 3 2 2 2 2 1 1 1 0 1 2 3 3 3 3 3 4 5 6 7 9 9 9 8 9 10 11 12 12
5 6 6 6 6 6 6 6 6 6 5 5 4 3 3 2 1 1 1 1 1 1 1 1 1 1 2 3 3 3 4 6 6 7 7 8 9 10 10 11 10 11 12
5 5 5 5 5 5 5 5 5 6 6 5 4 3 2 2 1 1 1 1 2 2 3 2 2 3 3 3 4 5 6 6 7 7 7 8 9 10 10 9 11 11 12
Wind_Direction
293 288 294 291 288 288 283 279 277 274 273 270 268 267 264 260 253 245 242 239 232 233 230 225 230 221 212 208 202 202 208 208 224 236 183 134 121 133 128 124 126 125 131
284 285 286 284 286 286 282 279 277 275 273 268 267 267 266 265 254 245 248 249 235 234 232 225 228 224 216 210 203 201 205 204 209 215 193 168 151 152 140 137 132 126 122
287 290 291 290 287 283 279 276 276 273 272 271 267 263 263 263 259 251 243 242 237 234 229 222 222 214 216 211 208 206 205 208 203 198 198 187 162 150 135 130 124 117 121
291 292 289 286 281 278 277 277 276 273 270 267 263 259 258 258 258 254 248 243 240 237 230 223 218 209 209 206 208 209 203 201 201 195 192 184 167 152 143 144 141 133 133
292 289 283 280 281 283 285 283 281 278 279 268 266 265 261 261 260 253 246 248 241 240 236 228 223 219 214 206 205 199 196 196 197 198 193 181 174 164 167 159 157 143 126
288 286 284 286 290 290 288 284 283 280 276 272 267 265 265 270 269 263 251 245 237 234 236 233 231 230 226 217 213 200 190 189 195 197 196 191 189 177 167 165 159 160 168
293 291 293 293 293 290 293 295 286 282 277 274 270 264 262 261 260 259 256 244 233 231 230 229 236 232 219 216 218 212 204 199 190 185 190 195 184 178 170 173 177 170 165
299 299 298 297 295 292 290 288 285 281 279 276 274 269 265 266 261 255 252 246 238 232 228 221 219 226 222 209 209 207 203 205 199 190 192 198 190 178 177 176 168 145 112
302 301 298 298 299 298 295 291 287 285 285 280 276 272 268 269 263 256 247 233 232 233 230 222 215 219 221 208 196 198 203 212 209 200 197 202 199 183 170 160 161 162 155
299 298 297 296 297 296 294 290 287 284 282 284 282 277 270 268 266 256 239 223 227 231 228 223 220 216 216 204 194 191 202 208 190 189 199 211 205 193 182 178 174 173 157
296 301 301 299 297 293 290 289 291 291 290 289 289 288 282 275 273 262 241 216 216 220 221 219 220 215 211 203 193 191 203 193 181 176 178 182 182 187 191 187 180 177 172
302 305 304 302 303 307 299 297 297 295 296 297 297 300 297 294 286 274 251 222 209 208 216 216 214 207 203 198 195 196 195 184 168 167 170 177 184 192 194 190 187 186 178
308 307 306 306 303 299 296 297 303 301 297 298 300 301 305 308 311 310 283 239 217 206 212 209 207 200 192 191 195 190 183 172 165 167 178 187 193 192 180 177 174 166 149
308 308 307 307 307 306 299 291 292 293 295 298 299 302 305 308 317 329 320 274 219 208 207 196 181 169 160 163 171 178 175 176 172 176 183 187 176 171 175 173 170 163 152
308 307 308 304 302 305 301 290 282 270 257 267 277 279 294 303 305 307 293 259 214 196 164 140 132 145 162 161 158 167 174 171 174 169 170 171 175 175 174 168 160 158 161
309 310 307 306 306 305 305 306 288 271 270 260 249 252 267 273 298 308 292 265 234 185 160 158 168 175 180 180 178 180 181 183 182 177 175 175 177 177 172 166 164 164 164
300 303 304 303 304 306 306 305 310 308 284 268 264 257 253 278 296 312 312 290 227 166 167 177 181 187 190 186 184 183 187 190 180 177 180 181 178 175 170 172 171 168 167
302 304 304 299 301 302 300 298 297 302 310 306 275 252 256 267 278 288 291 167 188 198 202 195 198 197 195 192 192 191 190 183 180 183 182 182 180 176 174 176 175 171 167
304 303 303 302 302 300 299 301 301 303 300 297 295 281 254 263 273 266 255 229 221 224 219 215 211 205 200 196 198 197 191 187 184 182 184 183 182 178 179 180 177 173 167
304 308 314 307 305 307 309 310 309 306 305 300 291 277 248 228 268 251 226 225 231 235 225 218 215 207 202 200 198 195 192 190 187 188 187 185 183 180 179 177 177 176 177
305 312 317 316 308 307 309 309 307 303 300 301 293 274 230 236 265 271 250 231 229 231 228 222 214 206 201 194 189 190 190 191 190 188 185 183 180 178 177 174 175 174 172
304 305 308 308 308 310 310 311 313 308 304 302 296 293 268 255 268 269 254 243 238 234 225 213 209 204 197 193 189 188 190 190 186 182 179 176 175 175 172 172 172 172 171
305 307 310 311 309 311 316 319 321 318 314 311 303 294 288 275 273 272 267 261 250 240 225 204 198 203 204 197 191 189 190 191 184 177 175 174 174 175 173 172 171 169 169
303 305 308 314 315 318 322 324 327 326 325 320 316 309 302 297 293 293 299 311 315 306 237 182 185 198 194 183 184 184 184 178 172 173 170 170 169 168 165 165 166 166 164
305 310 313 316 317 320 325 329 333 337 337 331 328 329 331 330 333 344 11 32 43 44 73 90 101 122 141 152 159 154 151 154 161 162 160 160 158 157 155 155 156 156 156
313 317 322 324 324 328 330 331 335 341 341 337 342 346 345 342 336 357 31 64 59 53 64 74 77 79 91 102 117 121 119 124 131 136 144 147 148 148 147 146 149 152 151
Height
1490 1487 1484 1481 1478 1475 1472 1469 1467 1464 1462 1460 1458 1457 1456 1455 1454 1454 1454 1454 1454 1455 1456 1456 1457 1458 1458 1459 1460 1461 1464 1466 1468 1470 1472 1475 1477 1480 1484 1487 1490 1492 1495
1485 1482 1479 1476 1473 1469 1466 1464 1461 1458 1456 1454 1452 1450 1449 1448 1447 1446 1446 1446 1447 1447 1449 1450 1451 1453 1453 1454 1455 1456 1458 1461 1463 1465 1468 1471 1474 1477 1480 1484 1487 1489 1492
1481 1478 1474 1471 1467 1464 1460 1457 1455 1452 1450 1448 1445 1443 1442 1441 1440 1439 1438 1438 1439 1439 1441 1442 1444 1446 1447 1449 1450 1451 1453 1455 1458 1460 1463 1466 1470 1473 1476 1480 1484 1486 1489
1476 1473 1469 1465 1461 1458 1454 1451 1448 1445 1443 1440 1438 1436 1435 1433 1432 1431 1431 1430 1431 1431 1433 1435 1437 1439 1441 1443 1445 1447 1448 1450 1452 1455 1458 1461 1465 1468 1472 1476 1480 1483 1486
1472 1468 1464 1460 1456 1452 1448 1445 1442 1439 1436 1433 1431 1429 1427 1425 1424 1423 1422 1422 1422 1423 1424 1426 1429 1432 1434 1437 1439 1441 1444 1445 1447 1449 1452 1456 1459 1463 1467 1472 1476 1479 1482
1467 1462 1458 1454 1450 1446 1442 1438 1435 1432 1429 1426 1424 1421 1419 1417 1416 1415 1414 1414 1415 1415 1417 1419 1421 1424 1427 1430 1433 1436 1439 1441 1443 1444 1447 1450 1453 1458 1462 1467 1471 1475 1478
1462 1457 1453 1449 1444 1440 1436 1432 1429 1426 1423 1420 1417 1414 1411 1409 1408 1406 1406 1406 1406 1407 1409 1411 1414 1416 1420 1423 1427 1430 1433 1436 1438 1441 1442 1445 1449 1452 1457 1462 1466 1470 1473
1457 1452 1448 1443 1439 1435 1431 1427 1423 1420 1416 1413 1410 1407 1404 1401 1400 1398 1398 1398 1398 1399 1401 1403 1406 1409 1413 1417 1420 1424 1427 1430 1433 1436 1439 1442 1445 1449 1452 1457 1461 1467 1471
1452 1447 1443 1438 1434 1429 1425 1421 1418 1414 1410 1407 1403 1400 1397 1394 1393 1391 1391 1390 1391 1392 1394 1396 1399 1402 1406 1410 1414 1417 1421 1425 1429 1432 1435 1438 1440 1444 1448 1452 1456 1462 1465
1448 1443 1438 1434 1429 1425 1420 1416 1413 1409 1405 1401 1397 1394 1391 1388 1386 1385 1384 1384 1384 1385 1387 1390 1393 1395 1399 1404 1408 1412 1416 1420 1424 1427 1430 1433 1436 1439 1443 1447 1451 1456 1460
1444 1439 1434 1429 1425 1420 1416 1413 1409 1404 1400 1396 1392 1389 1385 1382 1380 1379 1378 1378 1379 1380 1382 1384 1387 1390 1394 1398 1402 1407 1411 1416 1419 1423 1426 1429 1432 1435 1438 1442 1447 1452 1456
1440 1435 1430 1425 1421 1417 1413 1409 1405 1400 1396 1392 1388 1384 1381 1378 1376 1374 1373 1373 1374 1375 1377 1379 1382 1385 1389 1393 1397 1402 1407 1411 1415 1419 1422 1425 1428 1431 1435 1439 1443 1447 1452
1436 1431 1426 1422 1418 1414 1410 1405 1401 1397 1393 1388 1384 1380 1377 1375 1372 1371 1370 1369 1370 1371 1373 1375 1378 1381 1385 1389 1393 1398 1403 1407 1411 1414 1418 1421 1424 1428 1431 1435 1439 1443 1448
1432 1427 1423 1419 1415 1411 1407 1403 1398 1394 1390 1386 1382 1378 1374 1372 1370 1368 1367 1367 1367 1369 1370 1373 1375 1378 1382 1386 1390 1395 1399 1403 1407 1411 1414 1418 1421 1424 1428 1431 1435 1439 1443
1429 1425 1421 1416 1412 1408 1404 1400 1396 1392 1388 1384 1380 1376 1372 1370 1368 1366 1365 1365 1365 1367 1369 1371 1373 1376 1379 1383 1387 1392 1396 1400 1404 1407 1411 1414 1418 1421 1424 1428 1431 1435 1439
1426 1422 1418 1414 1410 1406 1401 1397 1394 1390 1386 1382 1378 1375 1371 1369 1366 1365 1364 1364 1365 1366 1367 1369 1372 1375 1378 1381 1385 1389 1393 1397 1401 1404 1408 1411 1414 1417 1421 1424 1428 1431 1436
1424 1420 1416 1412 1408 1404 1399 1395 1391 1387 1384 1380 1376 1373 1370 1368 1366 1364 1364 1364 1364 1365 1367 1369 1371 1373 1376 1379 1383 1386 1390 1394 1398 1401 1404 1407 1411 1414 1417 1421 1424 1428 1432
1422 1418 1414 1410 1406 1402 1398 1394 1389 1385 1381 1378 1375 1372 1370 1368 1366 1364 1364 1364 1364 1365 1366 1368 1370 1372 1375 1378 1380 1384 1387 1391 1394 1397 1401 1404 1407 1410 1413 1417 1420 1424 1429
1420 1416 1412 1408 1405 1401 1397 1392 1388 1384 1380 1377 1374 1372 1370 1368 1366 1365 1364 1364 1364 1365 1366 1367 1369 1371 1373 1375 1378 1381 1384 1387 1390 1393 1396 1400 1403 1406 1409 1413 1417 1421 1425
1418 1414 1411 1407 1403 1399 1395 1391 1387 1383 1379 1376 1373 1371 1369 1368 1366 1365 1364 1364 1364 1364 1365 1366 1368 1369 1371 1373 1375 1378 1380 1383 1386 1389 1392 1395 1398 1402 1405 1409 1413 1418 1422
1416 1413 1409 1405 1402 1398 1394 1390 1386 1382 1379 1376 1373 1371 1369 1367 1366 1365 1363 1363 1363 1363 1364 1365 1366 1367 1369 1370 1372 1374 1376 1379 1381 1384 1387 1390 1394 1397 1401 1405 1410 1414 1418
1415 1411 1408 1405 1401 1397 1394 1390 1386 1382 1379 1375 1373 1371 1369 1367 1365 1364 1363 1362 1362 1362 1363 1363 1364 1365 1366 1367 1369 1370 1372 1374 1377 1380 1383 1386 1390 1393 1397 1401 1406 1410 1415
1414 1410 1407 1404 1401 1397 1394 1390 1386 1383 1379 1376 1373 1371 1369 1367 1365 1364 1362 1362 1361 1361 1361 1361 1361 1362 1363 1364 1366 1367 1369 1371 1373 1376 1379 1382 1386 1390 1394 1398 1402 1406 1411
1412 1409 1406 1403 1400 1397 1394 1390 1387 1383 1380 1377 1374 1372 1369 1367 1366 1364 1363 1362 1361 1360 1359 1359 1359 1360 1360 1361 1362 1364 1365 1367 1370 1373 1376 1379 1383 1386 1390 1395 1400 1404 1409
1410 1408 1406 1403 1400 1397 1394 1391 1388 1384 1381 1378 1376 1374 1371 1369 1367 1365 1364 1363 1361 1360 1359 1359 1358 1358 1359 1359 1359 1360 1362 1364 1367 1370 1374 1377 1381 1385 1389 1393 1398 1403 1408
1408 1406 1404 1402 1400 1397 1394 1391 1388 1386 1383 1380 1378 1376 1373 1372 1370 1368 1366 1365 1363 1362 1361 1360 1359 1359 1359 1359 1359 1360 1362 1364 1366 1369 1373 1376 1380 1384 1389 1393 1398 1403 1409